• In Uzbekistan
  • List of Countries
  • For 7 days
  • Water Temperature
  • Satellite Maps
  • Weather Map
  • Weather Widgets
  • user-avatar
    Login

    Hourly Weather Kutaisi

    Today, 19 August, Saturday

    Time Temperature Precipitation Wind Pressure Humidity
    00:00 +24°C° 0 mm 2 mps 747 mmHg 69%
    01:00 +24°C° 0 mm 2 mps 747 mmHg 66%
    02:00 +24°C° 0 mm 2 mps 747 mmHg 63%
    03:00 +24°C° 0 mm 2 mps 747 mmHg 61%
    04:00 +24°C° 0 mm 2 mps 747 mmHg 60%
    05:00 +24°C° 0 mm 2 mps 747 mmHg 58%
    06:00 +24°C° 0 mm 2 mps 747 mmHg 56%
    07:00 +27°C° 0 mm 2 mps 747 mmHg 52%
    08:00 +29°C° 0 mm 2 mps 747 mmHg 48%
    09:00 +31°C° 0 mm 2 mps 747 mmHg 44%
    10:00 +34°C° 0 mm 2 mps 747 mmHg 41%
    11:00 +35°C° 0 mm 2 mps 747 mmHg 39%
    12:00 +36°C° 0 mm 2 mps 747 mmHg 36%
    13:00 +37°C° 0 mm 2 mps 747 mmHg 36%
    14:00 +37°C° 0 mm 2 mps 746 mmHg 36%
    15:00 +37°C° 0 mm 2 mps 746 mmHg 36%
    16:00 +36°C° 0 mm 2 mps 746 mmHg 43%
    17:00 +34°C° 0 mm 2 mps 747 mmHg 51%
    18:00 +31°C° 0 mm 2 mps 747 mmHg 59%
    19:00 +29°C° 0 mm 2 mps 747 mmHg 64%
    20:00 +28°C° 0 mm 2 mps 747 mmHg 69%
    21:00 +26°C° 0 mm 1 mps 748 mmHg 74%
    22:00 +25°C° 0 mm 2 mps 748 mmHg 71%
    23:00 +25°C° 0 mm 2 mps 748 mmHg 69%

    Tomorrow, 20 August, Sunday

    Time Temperature Precipitation Wind Pressure Humidity
    00:00 +25°C° 0 mm 2 mps 748 mmHg 67%
    01:00 +25°C° 0 mm 2 mps 748 mmHg 64%
    02:00 +25°C° 0 mm 2 mps 748 mmHg 62%
    03:00 +24°C° 0 mm 2 mps 748 mmHg 59%
    04:00 +24°C° 0 mm 2 mps 748 mmHg 59%
    05:00 +24°C° 0 mm 2 mps 748 mmHg 58%
    06:00 +24°C° 0 mm 2 mps 748 mmHg 57%
    07:00 +27°C° 0 mm 2 mps 747 mmHg 50%
    08:00 +29°C° 0 mm 2 mps 747 mmHg 43%
    09:00 +32°C° 0 mm 2 mps 747 mmHg 36%
    10:00 +35°C° 0 mm 2 mps 746 mmHg 33%
    11:00 +36°C° 0 mm 2 mps 746 mmHg 30%
    12:00 +38°C° 0 mm 3 mps 746 mmHg 26%
    13:00 +38°C° 0 mm 3 mps 746 mmHg 27%
    14:00 +38°C° 0 mm 3 mps 745 mmHg 27%
    15:00 +38°C° 0 mm 3 mps 745 mmHg 28%
    16:00 +36°C° 0 mm 2 mps 745 mmHg 36%
    17:00 +34°C° 0 mm 2 mps 745 mmHg 45%
    18:00 +31°C° 0 mm 1 mps 745 mmHg 53%
    19:00 +29°C° 0 mm 1 mps 746 mmHg 55%
    20:00 +27°C° 0 mm 2 mps 746 mmHg 57%
    21:00 +26°C° 0 mm 2 mps 747 mmHg 59%
    22:00 +25°C° 0 mm 2 mps 747 mmHg 55%
    23:00 +25°C° 0 mm 2 mps 747 mmHg 51%

    Day after tomorrow, 21 August, Monday

    Time Temperature Precipitation Wind Pressure Humidity
    00:00 +25°C° 0 mm 2 mps 747 mmHg 47%
    01:00 +25°C° 0 mm 2 mps 747 mmHg 46%
    02:00 +25°C° 0 mm 2 mps 747 mmHg 46%
    03:00 +25°C° 0 mm 2 mps 747 mmHg 45%
    04:00 +24°C° 0 mm 2 mps 747 mmHg 46%
    05:00 +24°C° 0 mm 2 mps 746 mmHg 48%
    06:00 +24°C° 0 mm 2 mps 746 mmHg 49%
    07:00 +27°C° 0 mm 2 mps 746 mmHg 44%
    08:00 +30°C° 0 mm 2 mps 746 mmHg 39%
    09:00 +34°C° 0 mm 2 mps 745 mmHg 34%
    10:00 +35°C° 0 mm 2 mps 745 mmHg 31%
    11:00 +37°C° 0 mm 2 mps 744 mmHg 28%
    12:00 +39°C° 0 mm 2 mps 744 mmHg 25%
    13:00 +39°C° 0 mm 2 mps 744 mmHg 24%
    14:00 +40°C° 0 mm 2 mps 743 mmHg 23%
    15:00 +40°C° 0 mm 2 mps 743 mmHg 23%
    16:00 +38°C° 0 mm 2 mps 743 mmHg 29%
    17:00 +36°C° 0 mm 2 mps 743 mmHg 36%
    18:00 +34°C° 0 mm 1 mps 742 mmHg 42%
    19:00 +32°C° 0 mm 2 mps 743 mmHg 40%
    20:00 +31°C° 0 mm 2 mps 743 mmHg 39%
    21:00 +29°C° 0 mm 3 mps 744 mmHg 37%
    22:00 +29°C° 0 mm 3 mps 744 mmHg 36%
    23:00 +28°C° 0 mm 3 mps 744 mmHg 35%

    22 August, Tuesday

    Time Temperature Precipitation Wind Pressure Humidity
    00:00 +28°C° 0 mm 3 mps 744 mmHg 34%
    01:00 +27°C° 0 mm 3 mps 744 mmHg 35%
    02:00 +27°C° 0 mm 3 mps 744 mmHg 35%
    03:00 +26°C° 0 mm 2 mps 744 mmHg 35%
    04:00 +26°C° 0 mm 2 mps 744 mmHg 37%
    05:00 +25°C° 0 mm 2 mps 744 mmHg 39%
    06:00 +25°C° 0 mm 2 mps 744 mmHg 41%
    07:00 +28°C° 0 mm 2 mps 744 mmHg 39%
    08:00 +30°C° 0 mm 2 mps 744 mmHg 36%
    09:00 +33°C° 0 mm 1 mps 744 mmHg 33%
    10:00 +35°C° 0 mm 2 mps 744 mmHg 32%
    11:00 +36°C° 0 mm 2 mps 743 mmHg 30%
    12:00 +38°C° 0 mm 2 mps 743 mmHg 28%
    13:00 +38°C° 0 mm 2 mps 743 mmHg 31%
    14:00 +37°C° 0 mm 3 mps 743 mmHg 34%
    15:00 +37°C° 0 mm 3 mps 743 mmHg 36%
    16:00 +35°C° 0 mm 3 mps 743 mmHg 47%
    17:00 +34°C° 0 mm 2 mps 743 mmHg 58%
    18:00 +31°C° 0 mm 2 mps 743 mmHg 68%
    19:00 +29°C° 0 mm 1 mps 744 mmHg 76%
    20:00 +27°C° 0 mm 1 mps 744 mmHg 84%
    21:00 +26°C° 0 mm 1 mps 745 mmHg 91%
    22:00 +26°C° 0 mm 1 mps 745 mmHg 89%
    23:00 +25°C° 0 mm 1 mps 745 mmHg 87%

    23 August, Wednesday

    Time Temperature Precipitation Wind Pressure Humidity
    00:00 +25°C° 0 mm 1 mps 745 mmHg 84%
    01:00 +25°C° 0 mm 1 mps 745 mmHg 80%
    02:00 +25°C° 0 mm 1 mps 745 mmHg 76%
    03:00 +24°C° 0 mm 1 mps 745 mmHg 73%
    04:00 +24°C° 0 mm 1 mps 746 mmHg 71%
    05:00 +24°C° 0 mm 1 mps 746 mmHg 70%
    06:00 +24°C° 0 mm 1 mps 746 mmHg 68%
    07:00 +26°C° 0 mm 1 mps 746 mmHg 63%
    08:00 +28°C° 0 mm 1 mps 746 mmHg 58%
    09:00 +31°C° 0 mm 1 mps 746 mmHg 52%
    10:00 +32°C° 0 mm 1 mps 746 mmHg 50%
    11:00 +34°C° 0 mm 2 mps 746 mmHg 47%
    12:00 +35°C° 0 mm 2 mps 746 mmHg 44%
    13:00 +34°C° 0.3 mm 3 mps 747 mmHg 51%
    14:00 +33°C° 0.3 mm 3 mps 747 mmHg 58%
    15:00 +31°C° 0.3 mm 3 mps 747 mmHg 64%
    16:00 +30°C° 0.4 mm 3 mps 747 mmHg 72%
    17:00 +28°C° 0.4 mm 3 mps 748 mmHg 79%
    18:00 +27°C° 0.4 mm 2 mps 749 mmHg 86%
    19:00 +26°C° 0.2 mm 2 mps 749 mmHg 90%
    20:00 +25°C° 0.2 mm 1 mps 750 mmHg 93%
    21:00 +22°C° 0.2 mm 0 mps 751 mmHg 97%
    22:00 +22°C° 0.1 mm 0 mps 751 mmHg 97%
    23:00 +22°C° 0.1 mm 0 mps 751 mmHg 96%

    24 August, Thursday

    Time Temperature Precipitation Wind Pressure Humidity
    00:00 +22°C° 0.1 mm 0 mps 751 mmHg 96%
    01:00 +22°C° 0 mm 0 mps 751 mmHg 95%
    02:00 +23°C° 0 mm 1 mps 751 mmHg 94%
    03:00 +23°C° 0 mm 1 mps 751 mmHg 94%
    04:00 +23°C° 0 mm 1 mps 751 mmHg 93%
    05:00 +23°C° 0 mm 1 mps 751 mmHg 91%
    06:00 +23°C° 0 mm 1 mps 751 mmHg 90%
    07:00 +25°C° 0 mm 1 mps 750 mmHg 80%
    08:00 +28°C° 0 mm 1 mps 750 mmHg 70%
    09:00 +31°C° 0 mm 1 mps 750 mmHg 60%
    10:00 +32°C° 0 mm 1 mps 750 mmHg 54%
    11:00 +34°C° 0 mm 2 mps 749 mmHg 48%
    12:00 +35°C° 0 mm 2 mps 749 mmHg 43%
    13:00 +35°C° 0 mm 2 mps 749 mmHg 44%
    14:00 +35°C° 0 mm 3 mps 749 mmHg 45%
    15:00 +35°C° 0 mm 3 mps 749 mmHg 47%
    16:00 +33°C° 0 mm 3 mps 749 mmHg 56%
    17:00 +31°C° 0 mm 2 mps 750 mmHg 65%
    18:00 +29°C° 0 mm 2 mps 750 mmHg 74%
    19:00 +27°C° 0.1 mm 2 mps 750 mmHg 80%
    20:00 +26°C° 0.1 mm 1 mps 751 mmHg 87%
    21:00 +25°C° 0.1 mm 1 mps 751 mmHg 93%
    22:00 +24°C° 0 mm 1 mps 751 mmHg 92%
    23:00 +24°C° 0 mm 1 mps 751 mmHg 91%
    Show more